{"data":{"norad_id":65100,"epoch":"2026-09-20T13:19:00.453504Z","epoch_age_seconds":116200,"freshness":"FRESH","line1":"1 65100U 25167Y   26263.55486636  .00023320  00000+0  69929-3 0  9992","line2":"2 65100  53.1562 197.3383 0002083  94.1780 265.9461 15.34394697 63375","mean_motion":15.34394697,"eccentricity":0.0002083,"inclination_deg":53.1562,"raan_deg":197.3383,"arg_perigee_deg":94.178,"mean_anomaly_deg":265.9461,"bstar":0.00069929,"rev_number":6337,"period_min":93.848082427256,"perigee_km":461.29405158086,"apogee_km":464.14395219125,"semimajor_km":6840.8560018861,"source":"CELESTRAK","updated_at":"2026-09-21T09:00:35.525674Z"}}